This demonstration page uses our WeatherBlox Daily Observations layout. Learn more.

Left ArrowRight Arrow

39.08367, -84.50855

Hourly Observations for January 27, 2021

Temp ( °F °C ) Dew Point ( °F °C ) Humidity (%) Winds ( mph kmh ) Pressure ( in mb ) Visibility ( mi km ) Precip ( " mm )
12:14 am 00:14 Cloudy 36 2.2 27 -2.8 70 70 NNW 7 11 30.13 1020 10 16.0934 0 0
12:53 am 00:53 Cloudy 35 1.7 27 -2.8 72 72 WNW 8 13 30.12 1020 10 16.0934 0 0
1:00 am 01:00 Cloudy 35 1.7 27 -2.8 72 72 WNW 6 9 30.14 1021 10 16.0934 0 0
1:53 am 01:53 Cloudy 35 1.7 27 -2.8 72 72 NW 10 17 30.14 1021 10 16.0934 0 0
2:53 am 02:53 Cloudy 34 1.1 29 -1.7 82 82 NNW 7 11 30.17 1022 10 16.0934 0 0
3:53 am 03:53 Cloudy 35 1.7 28 -2.2 76 76 NNW 7 11 30.19 1023 10 16.0934 0 0
4:26 am 04:26 Cloudy 34 1.1 28 -2.2 79 79 N 5 7 30.23 1024 10 16.0934 0 0
4:53 am 04:53 Cloudy 34 1.1 28 -2.2 79 79 N 6 9 30.21 1023 10 16.0934 0 0
5:35 am 05:35 Cloudy 34 1.1 28 -2.2 79 79 NNE 5 7 30.23 1024 10 16.0934 0 0
5:53 am 05:53 Cloudy 34 1.1 28 -2.2 79 79 NE 7 11 30.19 1023 10 16.0934 0 0
6:53 am 06:53 Cloudy 33 0.6 28 -2.2 82 82 NE 8 13 30.17 1022 10 16.0934 0 0
7:53 am 07:53 Cloudy 34 1.1 27 -2.8 76 76 N 6 9 30.22 1023 10 16.0934 0 0
8:53 am 08:53 Cloudy 33 0.6 27 -2.8 78 78 NNE 10 17 30.24 1024 10 16.0934 0 0
9:07 am 09:07 Cloudy 33 0.6 26 -3.3 75 75 NE 9 15 30.26 1025 10 16.0934 0 0
9:53 am 09:53 Cloudy 33 0.6 27 -2.8 78 78 NE 10 17 30.23 1024 10 16.0934 0 0
10:53 am 10:53 Cloudy 34 1.1 24 -4.4 67 67 ENE 9 15 30.24 1024 10 16.0934 0 0
11:53 am 11:53 Cloudy 34 1.1 25 -3.9 70 70 N 8 13 30.27 1025 10 16.0934 0 0
12:53 pm 12:53 Cloudy 34 1.1 25 -3.9 70 70 NNE 7 11 30.24 1024 10 16.0934 0 0
1:53 pm 13:53 Cloudy 34 1.1 25 -3.9 70 70 NNE 12 19 30.2 1023 10 16.0934 0 0
2:53 pm 14:53 Cloudy 34 1.1 25 -3.9 70 70 NE 8 13 30.19 1022 10 16.0934 0 0
3:53 pm 15:53 Cloudy 34 1.1 24 -4.4 67 67 NNE 6 9 30.22 1023 10 16.0934 0 0
4:53 pm 16:53 Cloudy with Light Snow 32 0 26 -3.3 79 79 N 7 11 30.23 1024 1.75 2.816345 0.001 0.001
5:53 pm 17:53 Cloudy with Light Snow 31 -0.6 28 -2.2 89 89 NNE 6 9 30.23 1024 1.75 2.816345 0.001 0.001
6:08 pm 18:08 Cloudy with Light Snow 31 -0.6 28 -2.2 89 89 NNE 6 9 30.26 1025 1.75 2.816345 0.001 0.001
6:53 pm 18:53 Cloudy with Light Snow 31 -0.6 28 -2.2 89 89 NNE 7 11 30.25 1025 1.25 2.011675 0.001 0.001
7:53 pm 19:53 Cloudy with Light Snow 30 -1.1 27 -2.8 88 88 N 13 20 30.28 1026 1 1.60934 0.001 0.001
8:53 pm 20:53 Mostly Cloudy with Light Snow 29 -1.7 25 -3.9 85 85 N 10 17 30.32 1027 1 1.60934 0.001 0.001
9:03 pm 21:03 Cloudy with Light Snow 29 -1.7 26 -3.3 89 89 N 10 17 30.34 1027 1 1.60934 0.001 0.001
9:53 pm 21:53 Cloudy with Light Snow 28 -2.2 24 -4.4 85 85 N 13 20 30.35 1028 1.25 2.011675 0.001 0.001
10:53 pm 22:53 Cloudy with Light Snow 27 -2.8 23 -5 85 85 N 10 17 30.37 1028 2.5 4.02335 0.001 0.001
11:04 pm 23:04 Cloudy with Light Snow 27 -2.8 22 -5.6 81 81 NNW 9 15 30.39 1029 5 8.0467 0.001 0.001
11:25 pm 23:25 Cloudy 27 -2.8 20 -6.7 75 75 NNW 8 13 30.41 1030 10 16.0934 0.001 0.001
11:42 pm 23:42 Partly Cloudy 26 -3.3 19 -7.2 75 75 N 7 11 30.42 1030 10 16.0934 0.001 0.001
11:53 pm 23:53 Mostly Clear 26 -3.3 18 -7.8 71 71 N 8 13 30.4 1029 10 16.0934 0.001 0.001

Powered by AerisWeather